Regional Weather Roundup
Issued by NWS

Home | Current Version | Previous Version | Graphics & Text | Print | Product List | Glossary On
Versions: 1 2 3 4 5 6 7 8 9 10 11 12 13 14 15 16 17 18 19 20 21 22 23 24 25 26 27 28 29 30 31 32 33 34 35 36 37 38 39 40 41 42 43 44 45 46 47 48 49 50
000
ASUS43 KLOT 020708
RWRIL

ILLINOIS REGIONAL WEATHER ROUNDUP
NATIONAL WEATHER SERVICE CHICAGO/ROMEOVILLE IL
200 AM CDT THU APR 02 2015

NOTE: "FAIR" INDICATES FEW OR NO CLOUDS BELOW 12,000 FEET WITH NO
SIGNIFICANT WEATHER AND/OR OBSTRUCTIONS TO VISIBILITY.

* THESE STATIONS ARE NOT UNDER NWS QUALITY CONTROL. THEY ALSO MAY NOT
  REPORT WEATHER SUCH AS PRECIPITATION OR FOG.

ILZ001-002-007-009-015-016-024-020800-
NORTHWEST ILLINOIS

CITY           SKY/WX    TMP DP  RH WIND       PRES   REMARKS
MOLINE         MOCLDY    61  41  47 S12       29.71F
STERLING*      MOCLDY    57  39  51 S5        29.75F
SAVANNA*       PTCLDY    54  40  58 S9        29.72F
$$

ILZ003-004-008-010-011-017-018-020800-
NORTH CENTRAL ILLINOIS

CITY           SKY/WX    TMP DP  RH WIND       PRES   REMARKS
ROCKFORD       CLOUDY    55  39  54 S14       29.77F
FREEPORT*      PTCLDY    51  40  65 S8        29.75F
ROCHELLE*      MOCLDY    54  39  58 S13       29.77S
DE KALB*       MOCLDY    50  38  65 S13       29.79S
PERU*          PTCLDY    56  38  52 S12       29.77F
$$

ILZ005-006-012>014-019>023-020800-
NORTHEAST ILLINOIS

CITY           SKY/WX    TMP DP  RH WIND       PRES   REMARKS
CHICAGO-OHARE  MOCLDY    58  35  42 S21G26    29.79S
CHICAGO-MIDWAY MOCLDY    60  34  37 S15G25    29.80S
AURORA         PTCLDY    54  37  52 S10       29.80R
LANSING*       PTCLDY    54  33  44 S14       29.82S
JOLIET*        PTCLDY    58  37  44 S14       29.80S
WAUKEGAN       MOCLDY    58  35  42 S14       29.77F
DUPAGE AIRPORT MOCLDY    58  36  43 S17G23    29.78F
KANKAKEE*      PTCLDY    55  36  49 S15       29.82S
WHEELING       MOCLDY    59  34  39 S21G29    29.80F
MORRIS*        PTCLDY    55  37  50 S17       29.78S
ROMEOVILLE*    PTCLDY    55  35  46 S16       29.80S
NORTHERLY ISL    N/A     59  32  36 S14         N/A
$$

LMZ740>746-020800-
SOUTHERN LAKE MICHIGAN

STATION/POSITION SKY/WX   TEMP    WIND        PRES    VSBY  WAVE
                          AIR SEA DIR/SP/G                  HT/PER
                          (F)     (DEG/KT/KT) (MB)    (MI)  (FT/S)
HARRISON CRIB              56     180/ 22/ 25   N/A
BURNHAM HARBOR             58     200/  7/ 19   N/A
CALUMET HARBOR             59     170/ 12/ 19 1008.3F
BURNS HARBOR               58     180/ 13/ 28 1010.5
MICHIGAN CITY              58     150/ 17/ 22   N/A
$$

ILZ025>027-034>036-040-047-049-050-058-095>099-020800-
WEST-CENTRAL ILLINOIS

CITY           SKY/WX    TMP DP  RH WIND       PRES   REMARKS
QUINCY         MOCLDY    59  54  83 S13       29.73F
GALESBURG*     DRIZZLE   59  50  73 S15G22    29.74S
MACOMB*        CLOUDY    58  53  84 S16       29.77S
JACKSONVILLE*  LGT RAIN  55  53  92 CALM      29.77S
PITTSFIELD*    CLOUDY    59  53  82 CALM      29.78R
$$

ILZ028>032-037-038-041>044-048-051>054-059>061-020800-
CENTRAL ILLINOIS

CITY           SKY/WX    TMP DP  RH WIND       PRES   REMARKS
PONTIAC        PTCLDY    57  38  50 S17G23    29.79F
BLOOMINGTON    PTCLDY    57  40  53 S20       29.80F
DECATUR        MOCLDY    59  38  45 S15       29.80F
PEORIA         LGT RAIN  56  47  71 S14       29.78R
LACON*         PTCLDY    60  37  42 S14G25    29.75F
LINCOLN*       LGT RAIN  57  44  60 S5        29.77F
SPRINGFIELD    CLOUDY    62  41  46 S18       29.77F
TAYLORVILLE    MOCLDY    59  41  51 S15       29.79F
$$

ILZ033-039-045-046-055>057-062-063-020800-
EAST-CENTRAL ILLINOIS

CITY           SKY/WX    TMP DP  RH WIND       PRES   REMARKS
CHAMPAIGN      MOCLDY    57  36  45 SE18      29.82F
DANVILLE*      PTCLDY    53  35  49 SE9       29.81F
RANTOUL*       MOCLDY    56  38  51 S14       29.83F
MATTOON        MOCLDY    57  35  43 S14       29.83F
PARIS*         MOCLDY    55  38  52 SE13      29.87S
$$

ILZ079-100>102-020800-
SOUTHWEST ILLINOIS

CITY           SKY/WX    TMP DP  RH WIND       PRES   REMARKS
ALTON          MOCLDY    63  46  53 S15G21    29.79F
BELLEVILLE     CLOUDY    63  55  74 VRB7      29.81S
CAHOKIA*       MOCLDY    67  53  61 S15G23    29.80F
SPARTA*        CLOUDY    65  54  66 SW15G29   29.86S
$$

ILZ064>066-069>071-074>076-080>082-084>086-088>090-092>094-020800-
SOUTH-CENTRAL ILLINOIS

CITY           SKY/WX    TMP DP  RH WIND       PRES   REMARKS
CARBONDALE     LGT RAIN  63  56  78 SW23G39   29.89R
CAIRO*         TSTM      62  59  88 SW14G22   29.93R
EFFINGHAM*     MOCLDY    60  32  35 SE12      29.86F
MARION         CLOUDY    66  55  68 SW13      29.91R
MT. VERNON     CLOUDY    61  43  51 S8        29.85F
CENTRALIA*     CLOUDY    61  46  58 S10       29.84S
SALEM*         CLOUDY    63  40  43 SE6       29.84F
METROPOLIS*    CLOUDY    65  54  67 S6        29.89F
$$

ILZ067-068-072-073-078-083-087-091-020800-
SOUTHEAST ILLINOIS

CITY           SKY/WX    TMP DP  RH WIND       PRES   REMARKS
LAWRENCEVILLE  CLOUDY    55  36  48 S6        29.88F
FLORA*         CLOUDY    58  39  50 S10       29.86F
FAIRFIELD*     CLOUDY    59  40  50 S6        29.86S
HARRISBURG*    CLOUDY    65  48  55 S7        29.89S
ROBINSON*      CLOUDY    55  35  48 SE8       29.89S
CARMI*         CLOUDY    58  38  46 SE8       29.87F
$$

ABBREVIATIONS USED IN REMARKS
   TC - TEMPERATURE IN CELSIUS
  WCI - WIND CHILL INDEX
   HX - HEAT INDEX
  VSB - VISIBILITY
$$




USA.gov is the U.S. government's official web portal to all federal, state and local government web resources and services.